Regional Weather Roundup
Issued by NWS Northern Indiana

Home | Current Version | Previous Version | Text Only | Print | Product List | Glossary On
Versions: 1 2 3 4 5 6 7 8 9 10 11 12 13 14 15 16 17 18 19 20 21 22 23 24 25 26 27 28 29 30 31 32 33 34 35 36 37 38 39 40 41 42 43 44 45 46 47 48 49 50
000
ASUS43 KIWX 240610
RWRIWX

KIWX WEATHER ROUNDUP
NATIONAL WEATHER SERVICE NORTHERN INDIANA
100 AM EST TUE JAN 24 2017

NOTE: "FAIR" INDICATES FEW OR NO CLOUDS BELOW 12,000 FEET WITH NO
SIGNIFICANT WEATHER AND/OR OBSTRUCTIONS TO VISIBILITY.

* THESE STATIONS ARE NOT UNDER NWS QUALITY CONTROL. THEY ALSO MAY NOT
  REPORT WEATHER SUCH AS PRECIPITATION OR FOG.

INZ001>027-240700-
NORTHERN INDIANA

CITY           SKY/WX    TMP DP  RH WIND       PRES   REMARKS
GARY*          CLOUDY    40  35  79 NW8       29.81R
VALPARAISO     CLOUDY    39  37  92 NW6       29.79F
6HR MIN TEMP:  39; 6HR MAX TEMP:  40;

LAPORTE*       CLOUDY    38  37  96 N12       29.77F FOG
6HR MIN TEMP:  37; 6HR MAX TEMP:  38;

KNOX*          CLOUDY    37  30  75 N9        29.77F
SOUTH BEND     CLOUDY    37  37 100 NW12      29.77S
6HR MIN TEMP:  37; 6HR MAX TEMP:  38;

GOSHEN         CLOUDY    39  36  89 NW9       29.73F
6HR MIN TEMP:  39; 6HR MAX TEMP:  40; 6HR PCP:  0.01;

ROCHESTER*     CLOUDY    41  39  93 NW10      29.76S
WARSAW*        CLOUDY    37  36  93 NW8       29.74S
FORT WAYNE     DRIZZLE   41  38  89 NW7       29.72F
6HR MIN TEMP:  41; 6HR MAX TEMP:  44; 6HR PCP:  0.06;

PERU/GRISSOM   CLOUDY    39  39 100 NW12      29.74R
6HR MIN TEMP:  38; 6HR MAX TEMP:  39; 6HR PCP:  0.01;

MARION*        CLOUDY    39  37  93 NW10      29.74R

$$
INZ028>050-240700-
CENTRAL INDIANA

CITY           SKY/WX    TMP DP  RH WIND       PRES   REMARKS
LAFAYETTE      CLOUDY    39  36  89 NW9       29.79S
6HR MIN TEMP:  38; 6HR MAX TEMP:  39;

KOKOMO*        CLOUDY    38  37  97 NW14      29.76R
6HR MIN TEMP:  38; 6HR MAX TEMP:  40; 6HR PCP:  0.01;

MUNCIE*        CLOUDY    41  39  93 N10       29.71F
6HR MIN TEMP:  41; 6HR MAX TEMP:  44; 6HR PCP:  0.04;

INDIANAPOLIS   CLOUDY    39  37  92 NW10      29.76F
6HR MIN TEMP:  39; 6HR MAX TEMP:  41; 6HR PCP: TRACE;


$$
MIZ043>046-050>051-056>058-064>065-071>073-077>080-240700-
SOUTHWEST LOWER MICHIGAN

CITY           SKY/WX    TMP DP  RH WIND       PRES   REMARKS
BATTLE CREEK   CLOUDY    40  39  97 NW7       29.72F
6HR MIN TEMP:  40; 6HR MAX TEMP:  41; 6HR PCP:  0.15;

BENTON HARBOR  CLOUDY    39  36  89 VRB6      29.78R
6HR MIN TEMP:  38; 6HR MAX TEMP:  39;

COLDWATER*     CLOUDY    40  40 100 NW7       29.71F
6HR MIN TEMP:  40; 6HR MAX TEMP:  40;

HILLSDALE*     LGT RAIN  37  36  93 NW6       29.69S
HOLLAND        CLOUDY    38  36  92 NW7       29.75F
6HR MIN TEMP:  38; 6HR MAX TEMP:  40;

GRAND RAPIDS   CLOUDY    40  38  93 NW7       29.73F
6HR MIN TEMP:  40; 6HR MAX TEMP:  41; 6HR PCP:  0.17;

KALAMAZOO      CLOUDY    40  37  89 NW8       29.73F FOG
6HR MIN TEMP:  40; 6HR MAX TEMP:  41; 6HR PCP:  0.04;

STURGIS*       CLOUDY    39  39 100 N7        29.72F FOG
6HR MIN TEMP:  39; 6HR MAX TEMP:  40; 6HR PCP:  0.01;

THREE RIVERS*  CLOUDY    40  38  93 NW5       29.73F FOG
6HR MIN TEMP:  40; 6HR MAX TEMP:  41;


$$
OHZ001>008-015>018-024>025-240700-
NORTHWEST OHIO

CITY           SKY/WX    TMP DP  RH WIND       PRES   REMARKS
DEFIANCE       CLOUDY    40  39  97 N7        29.71F
6HR MIN TEMP:  40; 6HR MAX TEMP:  42; 6HR PCP:  0.09;

FINDLAY        LGT RAIN  40  36  86 N9        29.69R
6HR MIN TEMP:  40; 6HR MAX TEMP:  42; 6HR PCP:  0.02;

TOLEDO EXPRESS CLOUDY    40  40 100 VRB3      29.70F FOG
6HR MIN TEMP:  40; 6HR MAX TEMP:  43; 6HR PCP:  0.10;

TOLEDO METCALF CLOUDY    39  38  96 NE5       29.71F
6HR MIN TEMP:  39; 6HR MAX TEMP:  43; 6HR PCP:  0.06;

LIMA           LGT RAIN  41  41 100 N3        29.68F
6HR MIN TEMP:  38; 6HR MAX TEMP:  41; 6HR PCP:  0.07;


$$
AND FOR LAKE MICHIGAN COASTAL AND OPEN LAKE BUOY OBSERVATIONS

STATION/POSITION TEMP    WIND        PRES    VSBY  WAVE
                 AIR SEA DIR/SP/G                  HT/PER
                 (F)     (DEG/KT/KT) (MB)    (MI)  (FT/S)
CALUMET HARBOR    38     320/  3/  6 1008.8S
MICHIGAN CITY     37     290/ 13/ 14   N/A
BURNS HARBOR      36     330/  8/  9 1009.5F

$$
&&




USA.gov is the U.S. government's official web portal to all federal, state and local government web resources and services.